Regional Weather Roundup
Issued by NWS Sterling, VA

Home | Current Version | Previous Version | Graphics & Text | Print | Product List | Glossary On
Versions: 1 2 3 4 5 6 7 8 9 10 11 12 13 14 15 16 17 18 19 20 21 22 23 24 25 26 27 28 29 30 31 32 33 34 35 36 37 38 39 40 41 42 43 44 45 46 47 48 49 50
000
ASUS41 KLWX 171111
RWRLWX

REGIONAL WEATHER ROUNDUP
NATIONAL WEATHER SERVICE BALTIMORE MD/WASHINGTON DC
600 AM EST SUN DEC 17 2017

Note: "FAIR" indicates few or no clouds below 12,000 feet
with no significant weather and/or obstructions to visibility.
 TC=TEMPERATURE CELSIUS

 * =Non NWS site. Station does not report precipitation (e.g. rain,
    snow, etc.), thunder, or fog.

DCZ001-MDZ009-015-VAZ040>042-051-053>054-171200-
WASHINGTON METRO

CITY           SKY/WX    TMP DP  RH WIND       PRES   REMARKS
WASHINGTON NAT CLOUDY    31  26  82 SW3       30.25R
DULLES         MOCLDY    24  23  96 CALM      30.24R
ANDREWS AFB    CLOUDY    26  22  84 CALM      30.22S
FT BELVOIR     PTCLDY    25  22  89 CALM      30.25R
QUANTICO       PTCLDY    28  26  92 NW6       30.27R
COLLEGE PARK*  PTCLDY    24  22  92 CALM      30.23S
LEESBURG*      CLOUDY    28  27  93 CALM      30.25R
MANASSAS*      PTCLDY    22  20  92 CALM      30.26R
GAITHERSBURG*  CLOUDY    26  23  88 CALM      30.22S

$$

MDZ006>007-011-014-171200-
BALTIMORE METRO

CITY           SKY/WX    TMP DP  RH WIND       PRES   REMARKS
BWI AIRPORT    MOCLDY    26  24  92 W3        30.23R
MD SCIENCE CTR   N/A     34  27  75 MISG      30.23R
MARTIN STATE   PTCLDY    27  27 100 CALM      30.25S
ANNAPOLIS      PTCLDY    32  26  78 CALM      30.24R
FORT MEADE*    PTCLDY    23  23 100 CALM      30.26R

$$

MDZ012-015-019>023-171200-
MARYLAND EASTERN SHORE

CITY           SKY/WX    TMP DP  RH WIND       PRES   REMARKS
OCEAN CITY     CLOUDY    30  28  92 CALM      30.25S
SALISBURY      CLOUDY    26  25  96 CALM      30.24S
BAY BRIDGE AP* PTCLDY    30  27  86 CALM      30.24R
CAMBRIDGE*     CLEAR     27  25  93 SE6       30.24S
EASTON*        CLEAR     28  27  93 CALM      30.27S

$$

MDZ017>025-171200-
SOUTHERN MARYLAND

CITY           SKY/WX    TMP DP  RH WIND       PRES   REMARKS
PATUXENT RIVER CLEAR     27  25  92 W3        30.24R
ST INIGOES     CLOUDY    29  26  89 NE3       30.24S
LEONARDTOWN*   CLOUDY    28  27  93 CALM      30.26R

$$

MDZ003>005-171200-
NORTH CENTRAL MARYLAND

CITY           SKY/WX    TMP DP  RH WIND       PRES   REMARKS
FREDERICK*     PTCLDY    27  27 100 CALM      30.25R
HAGERSTOWN APT CLOUDY    31  23  72 CALM      30.21R
WESTMINSTER*   PTCLDY    36  27  69 SW6       30.19S

$$

MDZ501>502-171200-
WESTERN MARYLAND

CITY           SKY/WX    TMP DP  RH WIND       PRES   REMARKS
OAKLAND*       CLOUDY    32  25  74 W12G17    30.11R WCI  23
CUMBERLAND*    PTCLDY    27  25  93 CALM      30.27R

$$

VAZ025>031-171200-
SHENANDOAH VALLEY

CITY           SKY/WX    TMP DP  RH WIND       PRES   REMARKS
WINCHESTER*    CLOUDY    32  23  69 SW5       30.22R
FRONT ROYAL*   FAIR      32  25  74 S5        30.22R
LURAY*         CLOUDY    28  27  93 CALM      30.22F
NEW MARKET*    CLOUDY    25  21  84 CALM      30.21F
STAUNTON*      CLOUDY    26  22  84 CALM      30.24R
WAYNESBORO*    PTCLDY    39  23  53 W8        30.22R

$$

WVZ021-048>050-054>055-171200-
EASTERN WEST VIRGINIA PANHANDLE

CITY           SKY/WX    TMP DP  RH WIND       PRES   REMARKS
MARTINSBURG    CLOUDY    27  23  85 SW6       30.21R
PETERSBURG*    PTCLDY    26  22  85 CALM      30.21F

$$

VAZ036>039-050-171200-
CENTRAL FOOTHILLS

CITY           SKY/WX    TMP DP  RH WIND       PRES   REMARKS
CHARLOTTESVILL CLOUDY    31  24  75 CALM      30.22R
CULPEPER*      FAIR      25  20  83 CALM      30.24S
ORANGE*        MOCLDY    27  23  86 CALM      30.23R
GORDONSVILLE*  CLOUDY    26  24  92 CALM      30.22S
WARRENTON*     PTCLDY    24  20  85 CALM      30.23R

$$

VAZ055>057-171200-
NORTH AND CENTRAL PIEDMONT

CITY           SKY/WX    TMP DP  RH WIND       PRES   REMARKS
FREDERICKSBRG* MOCLDY    26  25  94 CALM      30.24S
STAFFORD*      PTCLDY    26  26 100 CALM      30.29R

$$

NCZ024-NYZ072-PAZ021-071-VAZ022-071-171200-
OTHER REGIONAL OBSERVATIONS

CITY           SKY/WX    TMP DP  RH WIND       PRES   REMARKS
NEW YORK CITY  CLOUDY    33  21  61 VRB5      30.27F
PHILADELPHIA   CLOUDY    33  25  72 E5        30.26R
PITTSBURGH     CLOUDY    37  27  67 SW8       30.17R
ROANOKE        PTCLDY    34  25  69 NW3       30.27R
RICHMOND       PTCLDY    30  24  78 CALM      30.24R
RALEIGH        CLOUDY    28  24  85 CALM      30.27R

$$

ANZ530>537-171200-
MARINE OBSERVATIONS

STATION/POSITION TIME  TEMP    WIND        PRES
                       AIR SEA DIR/SP/G
                 (UTC) (F)     (DEG/KT/KT) (MB)
THOMAS PT LIGHT  1100   38 43  250/  3/  3   N/A
BALT KEY BRIDGE  1048   35     240/  2/  3 1023.8R
COVE POINT       1048   38      CALM  /  2 1024.6R
LEWISETTA        1048   33 38  240/  3/  3 1024.1R
SOLOMONS ISLAND  1048   35 45  300/  1/  2 1023.8R
PINEY POINT      1048          300/  5/  5   N/A

$$




USA.gov is the U.S. government's official web portal to all federal, state and local government web resources and services.